ARE4159 SKBQ-SKBO

Flight info

Callsign ARE4159
Flight time 1h 6m
Altitude 35000
Route NINLO3A LOKOV UG444 EJA/N0462F360 UQ119 ILSEV ILSEV5W
Aircraft A320/M-SDE3FGHIRWY/LB1

Departure

Time 2026-04-26 22:19
Airport Ernesto Cortissoz International Airport (SKBQ)

Arrival

Time 2026-04-26 23:25
Airport El Dorado International Airport (SKBO)
Time Latitude Longitude Altitude Speed Heading
2026-04-26 21:51 10.88634 -74.77763 96 ft 0 kts 130°
2026-04-26 22:09 10.88644 -74.77776 98 ft 3 kts 130°
2026-04-26 22:10 10.88656 -74.77790 96 ft 3 kts 130°
2026-04-26 22:10 10.88668 -74.77804 96 ft 3 kts 130°
2026-04-26 22:10 10.88679 -74.77819 95 ft 3 kts 130°
2026-04-26 22:10 10.88691 -74.77833 96 ft 3 kts 146°
2026-04-26 22:11 10.88708 -74.77840 96 ft 3 kts 183°
2026-04-26 22:11 10.88724 -74.77835 97 ft 0 kts 222°
2026-04-26 22:11 10.88711 -74.77847 95 ft 3 kts 221°
2026-04-26 22:11 10.88697 -74.77860 96 ft 3 kts 221°
2026-04-26 22:12 10.88681 -74.77873 98 ft 3 kts 219°
2026-04-26 22:12 10.88668 -74.77884 96 ft 0 kts 220°
2026-04-26 22:13 10.88650 -74.77899 96 ft 9 kts 219°
2026-04-26 22:14 10.88593 -74.77948 98 ft 10 kts 219°
2026-04-26 22:14 10.88543 -74.77990 97 ft 9 kts 219°
2026-04-26 22:14 10.88501 -74.78025 97 ft 7 kts 219°
2026-04-26 22:14 10.88468 -74.78053 97 ft 5 kts 220°
2026-04-26 22:15 10.88426 -74.78107 97 ft 14 kts 248°
2026-04-26 22:15 10.88429 -74.78202 100 ft 16 kts 280°
2026-04-26 22:15 10.88411 -74.78311 99 ft 15 kts 224°
2026-04-26 22:15 10.88335 -74.78375 100 ft 13 kts 220°
2026-04-26 22:16 10.88274 -74.78428 101 ft 10 kts 220°
2026-04-26 22:16 10.88224 -74.78470 102 ft 8 kts 220°
2026-04-26 22:16 10.88180 -74.78507 103 ft 12 kts 219°
2026-04-26 22:16 10.88083 -74.78591 105 ft 21 kts 220°
2026-04-26 22:17 10.87978 -74.78681 107 ft 18 kts 219°
2026-04-26 22:17 10.87916 -74.78770 109 ft 14 kts 266°
2026-04-26 22:17 10.87910 -74.78863 108 ft 14 kts 264°
2026-04-26 22:17 10.87938 -74.78956 110 ft 13 kts 355°
2026-04-26 22:18 10.87976 -74.78936 109 ft 0 kts 39°
2026-04-26 22:18 10.88093 -74.78836 107 ft 59 kts 40°
2026-04-26 22:18 10.88579 -74.78418 101 ft 122 kts 40°
2026-04-26 22:18 10.89359 -74.77753 161 ft 162 kts 40°
2026-04-26 22:19 10.90195 -74.77028 847 ft 157 kts 37°
2026-04-26 22:19 10.91026 -74.76319 1389 ft 161 kts 36°
2026-04-26 22:19 10.91946 -74.75536 1714 ft 183 kts 38°
2026-04-26 22:19 10.92979 -74.74658 1975 ft 204 kts 38°
2026-04-26 22:20 10.94096 -74.73706 2485 ft 213 kts 38°
2026-04-26 22:20 10.95103 -74.72580 3063 ft 222 kts 64°
2026-04-26 22:20 10.95242 -74.71017 3699 ft 229 kts 105°
2026-04-26 22:20 10.94514 -74.69558 4356 ft 235 kts 123°
2026-04-26 22:21 10.93501 -74.68242 5062 ft 236 kts 129°
2026-04-26 22:21 10.92424 -74.66983 5761 ft 236 kts 131°
2026-04-26 22:21 10.91227 -74.65840 6440 ft 237 kts 147°
2026-04-26 22:21 10.89730 -74.65090 6959 ft 247 kts 162°
2026-04-26 22:22 10.88009 -74.64649 7338 ft 261 kts 166°
2026-04-26 22:22 10.86189 -74.64186 7720 ft 280 kts 166°
2026-04-26 22:22 10.84275 -74.63678 8327 ft 288 kts 165°
2026-04-26 22:22 10.82324 -74.63148 9058 ft 292 kts 165°
2026-04-26 22:23 10.80352 -74.62608 9800 ft 295 kts 165°
2026-04-26 22:23 10.78339 -74.62057 10254 ft 309 kts 165°
2026-04-26 22:23 10.76185 -74.61468 10413 ft 332 kts 165°
2026-04-26 22:23 10.73872 -74.60839 10567 ft 353 kts 165°
2026-04-26 22:24 10.71468 -74.60187 11044 ft 361 kts 165°
2026-04-26 22:24 10.69028 -74.59527 11675 ft 365 kts 165°
2026-04-26 22:24 10.66562 -74.58862 12295 ft 368 kts 165°
2026-04-26 22:24 10.64076 -74.58195 12918 ft 371 kts 165°
2026-04-26 22:25 10.61562 -74.57518 13529 ft 374 kts 165°
2026-04-26 22:25 10.59023 -74.56832 14067 ft 377 kts 165°
2026-04-26 22:25 10.56512 -74.56151 14589 ft 380 kts 165°
2026-04-26 22:25 10.53946 -74.55456 15131 ft 382 kts 166°
2026-04-26 22:26 10.51363 -74.54761 15641 ft 386 kts 166°
2026-04-26 22:26 10.48754 -74.54060 16131 ft 389 kts 166°
2026-04-26 22:26 10.46122 -74.53354 16603 ft 393 kts 166°
2026-04-26 22:26 10.43469 -74.52638 17096 ft 396 kts 166°
2026-04-26 22:27 10.40796 -74.51916 17588 ft 399 kts 166°
2026-04-26 22:27 10.38108 -74.51190 18099 ft 401 kts 166°
2026-04-26 22:27 10.35401 -74.50461 18509 ft 405 kts 166°
2026-04-26 22:27 10.32675 -74.49729 18935 ft 407 kts 166°
2026-04-26 22:28 10.29913 -74.48989 19342 ft 410 kts 166°
2026-04-26 22:28 10.27148 -74.48244 19787 ft 412 kts 166°
2026-04-26 22:28 10.24373 -74.47493 20213 ft 414 kts 166°
2026-04-26 22:28 10.21580 -74.46736 20634 ft 417 kts 166°
2026-04-26 22:29 10.18765 -74.45978 21022 ft 419 kts 166°
2026-04-26 22:29 10.15932 -74.45219 21372 ft 423 kts 166°
2026-04-26 22:29 10.13105 -74.44459 21760 ft 425 kts 166°
2026-04-26 22:29 10.10237 -74.43686 22134 ft 428 kts 166°
2026-04-26 22:30 10.07352 -74.42909 22505 ft 430 kts 166°
2026-04-26 22:30 10.04448 -74.42129 22851 ft 433 kts 166°
2026-04-26 22:30 10.01524 -74.41345 23192 ft 435 kts 166°
2026-04-26 22:30 9.98593 -74.40558 23521 ft 437 kts 166°
2026-04-26 22:31 9.95642 -74.39762 23819 ft 439 kts 166°
2026-04-26 22:31 9.92685 -74.38964 24126 ft 440 kts 166°
2026-04-26 22:31 9.89720 -74.38165 24414 ft 441 kts 166°
2026-04-26 22:31 9.86747 -74.37366 24699 ft 442 kts 166°
2026-04-26 22:32 9.83775 -74.36568 24992 ft 443 kts 166°
2026-04-26 22:32 9.80794 -74.35767 25246 ft 445 kts 166°
2026-04-26 22:32 9.77794 -74.34961 25499 ft 447 kts 166°
2026-04-26 22:32 9.74775 -74.34151 25768 ft 448 kts 166°
2026-04-26 22:33 9.71755 -74.33342 26045 ft 450 kts 166°
2026-04-26 22:33 9.65683 -74.31711 26588 ft 452 kts 165°
2026-04-26 22:33 9.62638 -74.30893 26854 ft 453 kts 165°
2026-04-26 22:34 9.59588 -74.30075 27108 ft 454 kts 165°
2026-04-26 22:34 9.56526 -74.29255 27361 ft 455 kts 165°
2026-04-26 22:34 9.53495 -74.28446 27614 ft 456 kts 165°
2026-04-26 22:34 9.50417 -74.27624 27837 ft 457 kts 165°
2026-04-26 22:35 9.47344 -74.26801 28068 ft 458 kts 165°
2026-04-26 22:35 9.44250 -74.25970 28266 ft 460 kts 165°
2026-04-26 22:35 9.41157 -74.25140 28470 ft 461 kts 165°
2026-04-26 22:35 9.38052 -74.24305 28675 ft 462 kts 165°
2026-04-26 22:36 9.34927 -74.23464 28883 ft 463 kts 165°
2026-04-26 22:36 9.31813 -74.22627 29172 ft 462 kts 165°
2026-04-26 22:36 9.28711 -74.21793 29471 ft 461 kts 165°
2026-04-26 22:36 9.25613 -74.20965 29775 ft 460 kts 165°
2026-04-26 22:37 9.22523 -74.20143 30044 ft 459 kts 165°
2026-04-26 22:37 9.19444 -74.19325 30296 ft 457 kts 166°
2026-04-26 22:37 9.16363 -74.18504 30551 ft 456 kts 165°
2026-04-26 22:37 9.13293 -74.17684 30810 ft 455 kts 165°
2026-04-26 22:38 9.10237 -74.16866 31067 ft 454 kts 165°
2026-04-26 22:38 9.07186 -74.16049 31313 ft 453 kts 165°
2026-04-26 22:38 9.04141 -74.15234 31571 ft 452 kts 165°
2026-04-26 22:38 9.01098 -74.14422 31834 ft 451 kts 166°
2026-04-26 22:39 8.98071 -74.13614 32105 ft 450 kts 166°
2026-04-26 22:39 8.95047 -74.12807 32383 ft 448 kts 165°
2026-04-26 22:39 8.92033 -74.12000 32662 ft 447 kts 165°
2026-04-26 22:39 8.89029 -74.11197 32945 ft 446 kts 165°
2026-04-26 22:40 8.86036 -74.10395 33225 ft 445 kts 165°
2026-04-26 22:40 8.83052 -74.09594 33508 ft 443 kts 165°
2026-04-26 22:40 8.80111 -74.08806 33787 ft 442 kts 166°
2026-04-26 22:40 8.77103 -74.08003 34042 ft 441 kts 166°
2026-04-26 22:41 8.74133 -74.07215 34282 ft 441 kts 166°
2026-04-26 22:41 8.71161 -74.06428 34461 ft 441 kts 166°
2026-04-26 22:41 8.68192 -74.05641 34647 ft 442 kts 166°
2026-04-26 22:41 8.65213 -74.04849 34808 ft 442 kts 166°
2026-04-26 22:42 8.62272 -74.04064 34859 ft 444 kts 166°
2026-04-26 22:42 8.56292 -74.02460 34869 ft 445 kts 166°
2026-04-26 22:43 8.50305 -74.00853 34869 ft 445 kts 165°
2026-04-26 22:43 8.45345 -73.99525 34880 ft 443 kts 166°
2026-04-26 22:44 8.39381 -73.97943 34877 ft 443 kts 166°
2026-04-26 22:44 8.33410 -73.96364 34872 ft 443 kts 166°
2026-04-26 22:45 8.27449 -73.94776 34877 ft 443 kts 166°
2026-04-26 22:45 8.21473 -73.93185 34861 ft 444 kts 166°
2026-04-26 22:46 8.15489 -73.91593 34865 ft 444 kts 166°
2026-04-26 22:46 8.09515 -73.90002 34870 ft 444 kts 166°
2026-04-26 22:47 8.03532 -73.88617 34872 ft 444 kts 174°
2026-04-26 22:47 7.97357 -73.88110 34862 ft 444 kts 175°
2026-04-26 22:48 7.91187 -73.87624 34860 ft 445 kts 175°
2026-04-26 22:48 7.85017 -73.87129 34851 ft 445 kts 175°
2026-04-26 22:49 7.78852 -73.86633 34857 ft 445 kts 175°
2026-04-26 22:49 7.72690 -73.86139 34856 ft 445 kts 175°
2026-04-26 22:50 7.66515 -73.85643 34856 ft 445 kts 175°
2026-04-26 22:50 7.60333 -73.85147 34857 ft 446 kts 175°
2026-04-26 22:51 7.54141 -73.84656 34851 ft 446 kts 175°
2026-04-26 22:51 7.47985 -73.84167 34852 ft 447 kts 175°
2026-04-26 22:52 7.41784 -73.83668 34854 ft 447 kts 175°
2026-04-26 22:52 7.35584 -73.83168 34851 ft 447 kts 175°
2026-04-26 22:53 7.29393 -73.82670 34852 ft 447 kts 175°
2026-04-26 22:53 7.23168 -73.82173 34835 ft 448 kts 175°
2026-04-26 22:54 7.16935 -73.81673 34836 ft 449 kts 175°
2026-04-26 22:54 7.10703 -73.81179 34836 ft 450 kts 175°
2026-04-26 22:55 7.04459 -73.80706 34842 ft 450 kts 178°
2026-04-26 22:55 6.98267 -73.81415 34797 ft 451 kts 190°
2026-04-26 22:56 6.92099 -73.82581 34804 ft 451 kts 190°
2026-04-26 22:56 6.85912 -73.83733 34820 ft 451 kts 189°
2026-04-26 22:57 6.79736 -73.84879 34835 ft 451 kts 189°
2026-04-26 22:57 6.73610 -73.86025 34847 ft 451 kts 190°
2026-04-26 22:58 6.67434 -73.87189 34881 ft 451 kts 190°
2026-04-26 22:58 6.61254 -73.88351 34881 ft 451 kts 190°
2026-04-26 22:59 6.55073 -73.89511 34910 ft 452 kts 189°
2026-04-26 22:59 6.48887 -73.90662 34909 ft 453 kts 189°
2026-04-26 23:00 6.42674 -73.91823 34947 ft 454 kts 189°
2026-04-26 23:00 6.36462 -73.92983 34946 ft 454 kts 189°
2026-04-26 23:01 6.30258 -73.94145 34925 ft 454 kts 189°
2026-04-26 23:01 6.24044 -73.95309 34965 ft 453 kts 189°
2026-04-26 23:02 6.17852 -73.96460 34959 ft 454 kts 190°
2026-04-26 23:02 6.11625 -73.97620 35002 ft 454 kts 190°
2026-04-26 23:03 6.05452 -73.98771 35006 ft 454 kts 190°
2026-04-26 23:03 5.99235 -73.99930 35051 ft 455 kts 190°
2026-04-26 23:03 5.96123 -74.00517 34889 ft 455 kts 190°
2026-04-26 23:04 5.93005 -74.01111 33896 ft 456 kts 190°
2026-04-26 23:04 5.89874 -74.01709 32884 ft 459 kts 190°
2026-04-26 23:04 5.86725 -74.02308 31876 ft 463 kts 190°
2026-04-26 23:04 5.83551 -74.02911 30933 ft 466 kts 190°
2026-04-26 23:05 5.80359 -74.03519 29835 ft 470 kts 190°
2026-04-26 23:05 5.77124 -74.04136 28593 ft 475 kts 190°
2026-04-26 23:05 5.73872 -74.04755 27739 ft 472 kts 190°
2026-04-26 23:05 5.70673 -74.05362 27062 ft 466 kts 190°
2026-04-26 23:06 5.67497 -74.05963 26318 ft 462 kts 190°
2026-04-26 23:06 5.64352 -74.06559 25585 ft 459 kts 190°
2026-04-26 23:06 5.61227 -74.07152 24868 ft 455 kts 190°
2026-04-26 23:06 5.58120 -74.07744 24107 ft 453 kts 190°
2026-04-26 23:07 5.55028 -74.08331 23395 ft 451 kts 190°
2026-04-26 23:07 5.51951 -74.08913 22692 ft 447 kts 190°
2026-04-26 23:07 5.48937 -74.09484 22421 ft 433 kts 190°
2026-04-26 23:07 5.46025 -74.10039 22289 ft 418 kts 192°
2026-04-26 23:08 5.43305 -74.10898 22158 ft 404 kts 204°
2026-04-26 23:08 5.40919 -74.12292 22038 ft 392 kts 217°
2026-04-26 23:08 5.38926 -74.14115 21676 ft 386 kts 228°
2026-04-26 23:08 5.37149 -74.16129 21204 ft 384 kts 229°
2026-04-26 23:09 5.35384 -74.18132 20759 ft 381 kts 229°
2026-04-26 23:09 5.33640 -74.20107 20339 ft 378 kts 229°
2026-04-26 23:09 5.31894 -74.22081 19861 ft 375 kts 229°
2026-04-26 23:09 5.30164 -74.24036 19437 ft 373 kts 229°
2026-04-26 23:10 5.28448 -74.25975 19037 ft 370 kts 229°
2026-04-26 23:10 5.26746 -74.27900 18673 ft 368 kts 229°
2026-04-26 23:10 5.25142 -74.29845 18534 ft 356 kts 237°
2026-04-26 23:10 5.24076 -74.31995 18404 ft 344 kts 252°
2026-04-26 23:11 5.23593 -74.34337 17990 ft 341 kts 267°
2026-04-26 23:11 5.23690 -74.36682 17776 ft 333 kts 275°
2026-04-26 23:11 5.23885 -74.38990 17791 ft 331 kts 275°
2026-04-26 23:11 5.24070 -74.41293 17793 ft 331 kts 274°
2026-04-26 23:12 5.24251 -74.43603 17791 ft 332 kts 274°
2026-04-26 23:12 5.24239 -74.45909 17790 ft 331 kts 263°
2026-04-26 23:12 5.23715 -74.48158 17789 ft 331 kts 250°
2026-04-26 23:12 5.22898 -74.50315 17755 ft 331 kts 249°
2026-04-26 23:13 5.22086 -74.52469 17754 ft 331 kts 249°
2026-04-26 23:13 5.21269 -74.54645 17740 ft 332 kts 250°
2026-04-26 23:13 5.20458 -74.56812 17724 ft 331 kts 250°
2026-04-26 23:13 5.19542 -74.58931 17710 ft 331 kts 240°
2026-04-26 23:14 5.18230 -74.60789 17699 ft 332 kts 228°
2026-04-26 23:14 5.16574 -74.62407 17695 ft 338 kts 223°
2026-04-26 23:14 5.14793 -74.64065 17687 ft 360 kts 223°
2026-04-26 23:14 5.12886 -74.65803 17676 ft 380 kts 223°
2026-04-26 23:15 5.10878 -74.67635 17670 ft 397 kts 222°
2026-04-26 23:15 5.08673 -74.69203 17662 ft 382 kts 207°
2026-04-26 23:15 5.06212 -74.70051 17667 ft 363 kts 190°
2026-04-26 23:15 5.03786 -74.70193 17451 ft 343 kts 175°
2026-04-26 23:16 5.01488 -74.69692 16915 ft 335 kts 159°
2026-04-26 23:16 4.99470 -74.68619 16569 ft 322 kts 144°
2026-04-26 23:16 4.97836 -74.67152 16252 ft 310 kts 130°
2026-04-26 23:16 4.96636 -74.65414 15950 ft 301 kts 117°
2026-04-26 23:17 4.95880 -74.63455 15653 ft 303 kts 103°
2026-04-26 23:17 4.95443 -74.61382 15334 ft 302 kts 102°
2026-04-26 23:17 4.95015 -74.59321 15004 ft 303 kts 102°
2026-04-26 23:17 4.94582 -74.57254 14662 ft 303 kts 102°
2026-04-26 23:18 4.94144 -74.55178 14317 ft 304 kts 102°
2026-04-26 23:18 4.93705 -74.53104 13970 ft 305 kts 102°
2026-04-26 23:18 4.93264 -74.51016 13579 ft 306 kts 102°
2026-04-26 23:18 4.92822 -74.48928 13260 ft 306 kts 102°
2026-04-26 23:19 4.92385 -74.46854 13035 ft 300 kts 102°
2026-04-26 23:19 4.91968 -74.44861 12919 ft 291 kts 102°
2026-04-26 23:19 4.91460 -74.42909 12809 ft 280 kts 112°
2026-04-26 23:19 4.90549 -74.41241 12842 ft 268 kts 127°
2026-04-26 23:20 4.89194 -74.40016 12857 ft 263 kts 153°
2026-04-26 23:20 4.87583 -74.39150 12868 ft 263 kts 141°
2026-04-26 23:20 4.86504 -74.37704 12889 ft 258 kts 115°
2026-04-26 23:20 4.85621 -74.36115 12754 ft 264 kts 126°
2026-04-26 23:21 4.84510 -74.34652 12484 ft 263 kts 129°
2026-04-26 23:21 4.83391 -74.33219 12168 ft 264 kts 128°
2026-04-26 23:21 4.82276 -74.31753 11851 ft 264 kts 127°
2026-04-26 23:21 4.81168 -74.30286 11523 ft 263 kts 127°
2026-04-26 23:22 4.80063 -74.28824 11201 ft 262 kts 127°
2026-04-26 23:22 4.78974 -74.27385 10889 ft 254 kts 127°
2026-04-26 23:22 4.77938 -74.26016 10628 ft 237 kts 127°
2026-04-26 23:22 4.76986 -74.24759 10334 ft 217 kts 127°
2026-04-26 23:23 4.76114 -74.23607 10089 ft 198 kts 127°
2026-04-26 23:23 4.75318 -74.22555 9847 ft 181 kts 127°
2026-04-26 23:23 4.74580 -74.21581 9614 ft 170 kts 127°
2026-04-26 23:23 4.73875 -74.20650 9400 ft 165 kts 126°
2026-04-26 23:24 4.73186 -74.19740 9159 ft 163 kts 126°
2026-04-26 23:24 4.72503 -74.18838 8919 ft 161 kts 125°
2026-04-26 23:24 4.71827 -74.17941 8676 ft 161 kts 126°
2026-04-26 23:24 4.71149 -74.17048 8447 ft 162 kts 125°
2026-04-26 23:25 4.70511 -74.16195 8368 ft 140 kts 128°
2026-04-26 23:25 4.70021 -74.15556 8364 ft 91 kts 127°
2026-04-26 23:25 4.69755 -74.15202 8365 ft 27 kts 122°
2026-04-26 23:25 4.69711 -74.15025 8365 ft 26 kts 99°
2026-04-26 23:26 4.69696 -74.14896 8365 ft 15 kts 94°
2026-04-26 23:26 4.69742 -74.14814 8365 ft 14 kts 38°
2026-04-26 23:26 4.69817 -74.14759 8366 ft 14 kts 37°
2026-04-26 23:26 4.69897 -74.14700 8366 ft 15 kts 37°
2026-04-26 23:27 4.69979 -74.14638 8366 ft 15 kts 37°
2026-04-26 23:27 4.70063 -74.14573 8366 ft 14 kts 42°
2026-04-26 23:27 4.70046 -74.14516 8366 ft 8 kts 122°
2026-04-26 23:27 4.70017 -74.14476 8366 ft 13 kts 127°
2026-04-26 23:28 4.69943 -74.14377 8366 ft 14 kts 127°
2026-04-26 23:28 4.69895 -74.14308 8366 ft 5 kts 99°
2026-04-26 23:28 4.69911 -74.14289 8366 ft 3 kts 34°
2026-04-26 23:28 4.69924 -74.14279 8366 ft 2 kts 37°
2026-04-26 23:29 4.69933 -74.14273 8366 ft 1 kts 35°
2026-04-26 23:29 4.69936 -74.14271 8366 ft 2 kts 35°
2026-04-26 23:29 4.69942 -74.14267 8366 ft 0 kts 36°